timestamp,wind_dir_avg,wind_spd_avg,wind_spd_max_dir,wind_spd_gust,battery_voltage,lat,long
2023-05-30 00:04:00+00:00,15.0,7.03,17.0,8.07,13.05,47.59359,-54.27349
2023-05-30 00:14:00+00:00,24.0,7.32,20.0,8.36,12.49,47.59359,-54.27349
2023-05-30 00:24:00+00:00,29.0,7.66,32.0,9.18,12.49,47.59359,-54.27349
2023-05-30 00:34:00+00:00,31.0,6.27,27.0,7.35,12.49,47.59359,-54.27349
2023-05-30 00:44:00+00:00,32.0,7.1,42.0,8.33,12.49,47.59359,-54.27349
2023-05-30 00:54:00+00:00,32.0,8.44,32.0,9.25,12.49,47.59359,-54.27349
2023-05-30 01:04:00+00:00,19.0,7.81,18.0,8.75,12.49,47.59359,-54.27349
2023-05-30 01:14:00+00:00,18.0,8.13,20.0,9.11,12.41,47.59359,-54.27349
2023-05-30 01:24:00+00:00,13.0,8.52,10.0,10.23,12.41,47.59359,-54.27349
2023-05-30 01:34:00+00:00,19.0,8.3,18.0,9.26,12.41,47.59359,-54.27349
2023-05-30 01:44:00+00:00,17.0,7.05,14.0,8.27,12.41,47.59359,-54.27349
2023-05-30 01:54:00+00:00,13.0,7.47,30.0,8.78,12.41,47.59359,-54.27349
2023-05-30 02:04:00+00:00,16.0,7.11,14.0,7.89,12.41,47.59359,-54.27349
2023-05-30 02:14:00+00:00,13.0,6.24,15.0,6.82,12.33,47.59359,-54.27349
2023-05-30 02:24:00+00:00,22.0,6.22,33.0,6.99,12.33,47.59359,-54.27349
2023-05-30 02:34:00+00:00,29.0,6.04,32.0,7.09,12.33,47.59359,-54.27349
2023-05-30 02:44:00+00:00,23.0,5.55,19.0,6.24,12.33,47.59359,-54.27349
2023-05-30 02:54:00+00:00,12.0,4.52,18.0,5.44,12.33,47.59359,-54.27349
2023-05-30 03:04:00+00:00,15.0,4.65,16.0,5.05,12.33,47.59359,-54.27349
2023-05-30 03:14:00+00:00,2.0,4.84,6.0,5.27,12.33,47.59359,-54.27349
2023-05-30 03:24:00+00:00,358.0,5.28,358.0,6.07,12.33,47.59359,-54.27349
2023-05-30 03:34:00+00:00,357.0,4.75,354.0,5.52,12.33,47.59359,-54.27349
2023-05-30 03:44:00+00:00,357.0,3.82,358.0,4.27,12.33,47.59359,-54.27349
2023-05-30 03:54:00+00:00,0.0,3.27,6.0,3.59,12.33,47.59359,-54.27349
2023-05-30 04:04:00+00:00,8.0,3.27,3.0,3.82,12.33,47.59359,-54.27349
2023-05-30 04:14:00+00:00,13.0,3.89,8.0,4.57,12.33,47.59359,-54.27349
2023-05-30 04:24:00+00:00,11.0,3.27,12.0,3.72,12.33,47.59359,-54.27349
2023-05-30 04:34:00+00:00,0.0,3.08,3.0,3.57,12.33,47.59359,-54.27349
2023-05-30 04:44:00+00:00,350.0,3.58,348.0,4.21,12.33,47.59359,-54.27349
2023-05-30 04:54:00+00:00,10.0,2.97,10.0,3.53,12.33,47.59359,-54.27349
2023-05-30 05:04:00+00:00,349.0,3.05,350.0,3.7,12.33,47.59359,-54.27349
2023-05-30 05:14:00+00:00,331.0,1.8,328.0,2.06,12.33,47.59359,-54.27349
2023-05-30 05:24:00+00:00,334.0,1.81,330.0,2.11,12.33,47.59359,-54.27349
2023-05-30 05:34:00+00:00,329.0,1.57,349.0,1.83,12.33,47.59359,-54.27349
2023-05-30 05:44:00+00:00,347.0,1.11,351.0,1.42,12.33,47.59359,-54.27349
2023-05-30 05:54:00+00:00,22.0,0.89,29.0,1.13,12.33,47.59359,-54.27349
2023-05-30 06:04:00+00:00,31.0,0.45,27.0,0.69,12.33,47.59359,-54.27349
2023-05-30 06:14:00+00:00,344.0,0.88,348.0,1.07,12.25,47.59359,-54.27349
2023-05-30 06:24:00+00:00,282.0,1.18,292.0,1.43,12.25,47.59359,-54.27349
2023-05-30 06:34:00+00:00,279.0,2.37,280.0,2.84,12.25,47.59359,-54.27349
2023-05-30 06:44:00+00:00,294.0,2.14,293.0,2.51,12.25,47.59359,-54.27349
2023-05-30 06:54:00+00:00,285.0,2.52,287.0,2.86,12.25,47.59359,-54.27349
2023-05-30 07:04:00+00:00,272.0,2.51,273.0,2.72,12.25,47.59359,-54.27349
2023-05-30 07:14:01+00:00,279.0,2.07,284.0,2.5,12.25,47.59359,-54.27349
2023-05-30 07:24:01+00:00,263.0,2.28,269.0,2.55,12.25,47.59359,-54.27349
2023-05-30 07:34:01+00:00,275.0,2.91,275.0,3.35,12.25,47.59359,-54.27349
2023-05-30 07:44:01+00:00,273.0,4.26,284.0,4.59,12.25,47.59359,-54.27349
2023-05-30 07:54:01+00:00,280.0,4.26,280.0,4.85,12.25,47.59359,-54.27349
2023-05-30 08:04:01+00:00,288.0,4.23,289.0,4.76,12.25,47.59359,-54.27349
2023-05-30 08:14:01+00:00,286.0,4.97,288.0,5.59,12.25,47.59359,-54.27349
2023-05-30 08:24:01+00:00,286.0,4.77,289.0,5.29,12.25,47.59359,-54.27349
2023-05-30 08:34:01+00:00,285.0,4.78,283.0,5.19,12.25,47.59359,-54.27349
2023-05-30 08:44:01+00:00,279.0,4.46,277.0,4.99,12.25,47.59359,-54.27349
2023-05-30 08:54:01+00:00,274.0,3.26,277.0,3.67,12.25,47.59359,-54.27349
2023-05-30 09:04:01+00:00,279.0,3.57,279.0,3.95,12.25,47.59359,-54.27349
2023-05-30 09:14:00+00:00,271.0,3.24,265.0,3.57,12.57,47.59359,-54.27349
2023-05-30 09:24:00+00:00,267.0,2.93,268.0,3.18,12.57,47.59359,-54.27349
2023-05-30 09:34:00+00:00,270.0,3.71,273.0,4.2,12.57,47.59359,-54.27349
2023-05-30 09:44:00+00:00,278.0,3.29,279.0,3.55,12.57,47.59359,-54.27349
2023-05-30 09:54:00+00:00,285.0,3.73,284.0,4.8,12.57,47.59359,-54.27349
2023-05-30 10:04:00+00:00,269.0,3.81,273.0,4.63,12.57,47.59359,-54.27349
2023-05-30 10:14:01+00:00,268.0,3.7,272.0,4.18,13.6,47.59359,-54.27349
2023-05-30 10:24:01+00:00,273.0,3.42,269.0,3.7,13.6,47.59359,-54.27349
2023-05-30 10:34:01+00:00,278.0,4.58,285.0,5.59,13.6,47.59359,-54.27349
2023-05-30 10:44:01+00:00,279.0,4.45,283.0,4.92,13.6,47.59359,-54.27349
2023-05-30 10:54:01+00:00,288.0,4.36,292.0,5.27,13.6,47.59359,-54.27349
2023-05-30 11:04:01+00:00,289.0,4.95,290.0,6.07,13.6,47.59359,-54.27349
2023-05-30 11:14:00+00:00,292.0,4.51,289.0,5.11,13.6,47.59359,-54.27349
2023-05-30 11:24:00+00:00,284.0,4.7,285.0,5.24,13.6,47.59359,-54.27349
2023-05-30 11:34:00+00:00,293.0,5.26,297.0,6.13,13.6,47.59359,-54.27349
2023-05-30 11:44:00+00:00,300.0,3.55,304.0,4.1,13.6,47.59359,-54.27349
2023-05-30 11:54:00+00:00,298.0,5.0,300.0,5.53,13.6,47.59359,-54.27349
2023-05-30 12:04:00+00:00,303.0,3.35,308.0,4.15,13.6,47.59359,-54.27349
2023-05-30 12:14:00+00:00,262.0,2.75,267.0,3.12,13.6,47.59359,-54.27349
2023-05-30 12:24:00+00:00,264.0,2.85,265.0,3.78,13.6,47.59359,-54.27349
2023-05-30 12:34:00+00:00,265.0,2.56,260.0,3.08,13.6,47.59359,-54.27349
2023-05-30 12:44:00+00:00,255.0,3.18,259.0,3.62,13.6,47.59359,-54.27349
2023-05-30 12:54:00+00:00,245.0,2.84,237.0,3.37,13.6,47.59359,-54.27349
2023-05-30 13:04:00+00:00,248.0,2.91,260.0,4.7,13.6,47.59359,-54.27349
2023-05-30 13:14:00+00:00,222.0,2.32,226.0,2.82,13.6,47.59359,-54.27349
2023-05-30 13:24:00+00:00,209.0,3.46,211.0,3.86,13.6,47.59359,-54.27349
2023-05-30 13:34:00+00:00,192.0,5.02,191.0,5.45,13.6,47.59359,-54.27349
2023-05-30 13:44:00+00:00,196.0,5.49,195.0,6.09,13.6,47.59359,-54.27349
2023-05-30 13:54:00+00:00,195.0,6.2,196.0,6.69,13.6,47.59359,-54.27349
2023-05-30 14:04:00+00:00,201.0,6.5,204.0,7.31,13.6,47.59359,-54.27349
2023-05-30 14:14:00+00:00,203.0,6.36,201.0,7.05,14.0,47.59359,-54.27349
2023-05-30 14:24:00+00:00,201.0,8.03,201.0,8.65,14.0,47.59359,-54.27349
2023-05-30 14:34:00+00:00,201.0,7.45,198.0,8.43,14.0,47.59359,-54.27349
2023-05-30 14:44:00+00:00,203.0,7.71,207.0,8.35,14.0,47.59359,-54.27349
2023-05-30 14:54:00+00:00,204.0,7.58,202.0,8.13,14.0,47.59359,-54.27349
2023-05-30 15:04:00+00:00,203.0,8.18,204.0,9.08,14.0,47.59359,-54.27349
2023-05-30 15:14:00+00:00,202.0,7.9,201.0,8.44,14.32,47.59359,-54.27349
2023-05-30 15:24:00+00:00,201.0,7.55,200.0,8.34,14.32,47.59359,-54.27349
2023-05-30 15:34:00+00:00,206.0,7.97,210.0,8.65,14.32,47.59359,-54.27349
2023-05-30 15:44:00+00:00,207.0,8.09,208.0,8.9,14.32,47.59359,-54.27349
2023-05-30 15:54:00+00:00,205.0,8.36,204.0,9.43,14.32,47.59359,-54.27349
2023-05-30 16:04:00+00:00,206.0,8.17,211.0,9.02,14.32,47.59359,-54.27349
2023-05-30 16:14:00+00:00,205.0,9.0,204.0,10.17,14.32,47.59359,-54.27349
2023-05-30 16:24:00+00:00,208.0,8.44,210.0,9.51,14.32,47.59359,-54.27349
2023-05-30 16:34:00+00:00,209.0,8.89,210.0,10.79,14.32,47.59359,-54.27349
2023-05-30 16:44:00+00:00,206.0,10.04,206.0,11.38,14.32,47.59359,-54.27349
2023-05-30 16:54:00+00:00,209.0,10.58,219.0,12.31,14.32,47.59359,-54.27349
2023-05-30 17:04:00+00:00,208.0,10.34,210.0,11.87,14.32,47.59359,-54.27349
2023-05-30 17:14:00+00:00,208.0,11.38,213.0,12.88,14.24,47.59359,-54.27349
2023-05-30 17:24:00+00:00,203.0,11.17,201.0,13.19,14.24,47.59359,-54.27349
2023-05-30 17:34:00+00:00,209.0,10.64,208.0,12.36,14.24,47.59359,-54.27349
2023-05-30 17:44:00+00:00,210.0,11.27,209.0,12.7,14.24,47.59359,-54.27349
2023-05-30 17:54:00+00:00,213.0,11.37,213.0,12.55,14.24,47.59359,-54.27349
2023-05-30 18:04:00+00:00,217.0,10.68,219.0,12.26,14.24,47.59359,-54.27349
2023-05-30 18:14:00+00:00,213.0,11.41,211.0,12.77,13.92,47.59359,-54.27349
2023-05-30 18:24:00+00:00,206.0,10.06,213.0,11.18,13.92,47.59359,-54.27349
2023-05-30 18:34:00+00:00,207.0,10.86,213.0,12.39,13.92,47.59359,-54.27349
2023-05-30 18:44:00+00:00,207.0,9.97,211.0,11.28,13.92,47.59359,-54.27349
2023-05-30 18:54:00+00:00,206.0,9.72,215.0,11.4,13.92,47.59359,-54.27349
2023-05-30 19:04:00+00:00,210.0,10.3,213.0,12.04,13.92,47.59359,-54.27349
2023-05-30 19:14:00+00:00,207.0,9.13,211.0,10.96,13.6,47.59359,-54.27349
2023-05-30 19:24:00+00:00,208.0,8.81,208.0,9.74,13.6,47.59359,-54.27349
2023-05-30 19:34:00+00:00,206.0,9.87,206.0,10.82,13.6,47.59359,-54.27349
2023-05-30 19:44:00+00:00,203.0,9.44,207.0,10.41,13.6,47.59359,-54.27349
2023-05-30 19:54:00+00:00,205.0,10.19,207.0,10.89,13.6,47.59359,-54.27349
2023-05-30 20:04:00+00:00,202.0,9.66,208.0,10.79,13.6,47.59359,-54.27349
2023-05-30 20:14:00+00:00,206.0,9.79,217.0,11.84,13.68,47.59359,-54.27349
2023-05-30 20:24:00+00:00,199.0,9.32,196.0,10.75,13.68,47.59359,-54.27349
2023-05-30 20:34:00+00:00,204.0,9.29,208.0,10.35,13.68,47.59359,-54.27349
2023-05-30 20:44:00+00:00,205.0,9.36,207.0,10.35,13.68,47.59359,-54.27349
2023-05-30 20:54:00+00:00,202.0,8.73,212.0,10.42,13.68,47.59359,-54.27349
2023-05-30 21:04:00+00:00,213.0,10.2,232.0,12.28,13.68,47.59359,-54.27349
2023-05-30 21:14:00+00:00,197.0,8.8,211.0,10.58,13.6,47.59359,-54.27349
2023-05-30 21:24:00+00:00,201.0,8.76,204.0,10.13,13.6,47.59359,-54.27349
2023-05-30 21:34:00+00:00,203.0,9.45,204.0,10.58,13.6,47.59359,-54.27349
2023-05-30 21:44:00+00:00,203.0,8.74,208.0,9.79,13.6,47.59359,-54.27349
2023-05-30 21:54:00+00:00,204.0,8.89,206.0,9.93,13.6,47.59359,-54.27349
2023-05-30 22:04:00+00:00,204.0,9.28,200.0,10.32,13.6,47.59359,-54.27349
2023-05-30 22:14:00+00:00,204.0,8.91,203.0,10.1,13.37,47.59359,-54.27349
2023-05-30 22:24:00+00:00,208.0,8.94,210.0,10.27,13.37,47.59359,-54.27349
2023-05-30 22:34:00+00:00,205.0,8.44,203.0,9.55,13.37,47.59359,-54.27349
2023-05-30 22:44:00+00:00,207.0,8.21,209.0,9.43,13.37,47.59359,-54.27349
2023-05-30 22:54:00+00:00,207.0,7.85,208.0,8.84,13.37,47.59359,-54.27349
2023-05-30 23:04:00+00:00,209.0,7.9,207.0,8.9,13.37,47.59359,-54.27349
2023-05-30 23:14:00+00:00,206.0,8.39,209.0,9.54,12.89,47.59359,-54.27349
2023-05-30 23:24:00+00:00,209.0,7.49,210.0,8.16,12.89,47.59359,-54.27349
2023-05-30 23:34:00+00:00,214.0,8.02,217.0,8.92,12.89,47.59359,-54.27349
2023-05-30 23:44:00+00:00,205.0,8.25,206.0,9.09,12.89,47.59359,-54.27349
2023-05-30 23:54:00+00:00,207.0,8.49,205.0,9.61,12.89,47.59359,-54.27349
